Kenosha, WI

4:04 AM CDT on May 28, 2017 (GMT -0500)
Kenosha Regional

Weather History for KENW - May, 2014

Change the Weather History Date:

Sunday, May 11, 2014

  Actual Average Record
Temperature  
Mean Temperature 65 °F -  
Max Temperature 81 °F 62 °F 87 °F (1982)
Min Temperature 50 °F 43 °F 33 °F (1984)
Growing Degree Days 15 (Base 50)    
Moisture  
Dew Point 52 °F    
Average Humidity 65    
Maximum Humidity 93    
Minimum Humidity 47    
Precipitation  
Precipitation 0.04 in - - ()
Sea Level Pressure  
Sea Level Pressure 29.92 in    
Wind  
Wind Speed 8 mph (SSE)    
Max Wind Speed 13 mph    
Max Gust Speed -    
Visibility 10 miles    
Events Rain , Thunderstorm    
Averages and records for this station are not official NWS values.
T = Trace of Precipitation, MM = Missing Value Source: NWS Daily Summary

Daily Weather History Graph

Daily Weather History Graph

Search for Another Location

Airport or City:

Trip Planner

Search our weather history database for the weather conditions in past years. The results will help you decide how hot, cold, wet, or windy it might be!

Date:

Astronomy

May. 11, 2014 Rise Set
Actual Time 5:33 AM CDT 8:02 PM CDT
Civil Twilight 5:02 AM CDT 8:34 PM CDT
Nautical Twilight 4:22 AM CDT 9:14 PM CDT
Astronomical Twilight 3:37 AM CDT 9:59 PM CDT
Moon 4:54 PM CDT (5/11) 3:43 AM CDT (5/11)
Length of Visible Light 15h 32m
Length of Day
14h 29m
Waxing Gibbous, 89% of the Moon is Illuminated
May 11
Waxing Gibbous
May 14
Full
May 21
Last Quarter
May 28
New
Jun 5
First Quarter

Hourly Weather History & Observations

Time (CDT) Temp. Heat Index Dew Point Humidity Pressure Visibility Wind Dir Wind Speed Gust Speed Precip Events Conditions
12:53 AM 52.0 °F - 39.9 °F 63% 29.95 in 10.0 mi ESE 8.1 mph - N/A   Clear
1:53 AM 53.1 °F - 39.0 °F 59% 29.95 in 10.0 mi SSE 8.1 mph - N/A   Clear
2:53 AM 54.0 °F - 39.9 °F 59% 29.96 in 10.0 mi SSE 5.8 mph - N/A   Clear
3:53 AM 50.0 °F - 41.0 °F 71% 29.96 in 10.0 mi ESE 4.6 mph - N/A   Scattered Clouds
4:53 AM 51.1 °F - 41.0 °F 68% 29.96 in 10.0 mi SE 3.5 mph - N/A   Clear
5:53 AM 51.1 °F - 42.1 °F 71% 29.95 in 10.0 mi SSE 5.8 mph - N/A   Clear
6:53 AM 57.0 °F - 44.1 °F 62% 29.96 in 10.0 mi South 5.8 mph - N/A   Clear
7:53 AM 64.0 °F - 46.9 °F 54% 29.94 in 10.0 mi South 9.2 mph - N/A   Clear
8:53 AM 68.0 °F - 51.1 °F 55% 29.95 in 10.0 mi South 11.5 mph - N/A   Clear
9:53 AM 72.0 °F - 54.0 °F 53% 29.94 in 10.0 mi SSW 12.7 mph - N/A   Clear
10:53 AM 75.0 °F - 55.9 °F 51% 29.93 in 10.0 mi Variable 6.9 mph - N/A   Clear
11:53 AM 75.9 °F - 55.9 °F 50% 29.94 in 10.0 mi SW 8.1 mph - N/A   Clear
1:53 PM 80.1 °F 80.6 °F 57.9 °F 47% 29.91 in 10.0 mi WSW 8.1 mph - N/A   Clear
2:53 PM 80.1 °F 80.7 °F 59.0 °F 48% 29.90 in 10.0 mi Variable 5.8 mph - N/A   Clear
3:53 PM 79.0 °F - 60.1 °F 52% 29.90 in 10.0 mi South 10.4 mph - N/A   Clear
4:53 PM 73.9 °F - 55.9 °F 53% 29.88 in 10.0 mi SE 10.4 mph - N/A   Mostly Cloudy
5:20 PM 72.0 °F - 57.0 °F 59% 29.90 in 10.0 mi SE 4.6 mph - 0.00 in Rain , Thunderstorm Light Thunderstorms and Rain
5:53 PM 68.0 °F - 61.0 °F 78% 29.91 in 10.0 mi ESE 9.2 mph - 0.04 in Rain Light Rain
6:53 PM 66.9 °F - 61.0 °F 81% 29.87 in 10.0 mi SE 8.1 mph - 0.00 in   Clear
7:53 PM 66.0 °F - 60.1 °F 81% 29.88 in 10.0 mi SE 8.1 mph - N/A   Clear
8:53 PM 63.0 °F - 59.0 °F 87% 29.89 in 10.0 mi SE 10.4 mph - N/A   Mostly Cloudy
9:53 PM 63.0 °F - 57.9 °F 84% 29.89 in 10.0 mi SE 11.5 mph - N/A   Clear
10:53 PM 60.1 °F - 57.0 °F 90% 29.92 in 10.0 mi SE 4.6 mph - N/A   Scattered Clouds
11:53 PM 54.0 °F - 52.0 °F 93% 29.95 in 9.0 mi East 9.2 mph - N/A   Partly Cloudy